Date String (YYYY-MM-DD hh:mm:ss) UTC,Instrument flags,Ambient pressure (hPa),Sample flow (lpm),Bypass flow (lpm),Sample temperature (°C),Ambient temperature (°C),ASC tube jacket temperature (°C),LED temperature (°C),Box temperature (°C),Sample RH (%),Span deviation,Mass concentration (μg/m³),Mass concentration (μg/m³),Mass concentration (μg/m³)
DateTimeUTC,F1_M11,P_M11,Q1_M11,Q2_M11,T1_M11,T2_M11,T3_M11,T4_M11,T5_M11,U1_M11,ZSPAN_M11,X2_M11,X0_M11,X1_M11
2022-07-19 06:00:00,,0826.7,4.99,0.00,29.5,27.0,00.0,38.1,31.3,22.9,0000.0,0003.63,0007.34,0003.05
2022-07-19 06:01:00,,0826.6,5.00,0.00,29.5,26.9,00.0,38.1,31.2,23.0,0000.0,0003.64,0007.32,0003.06
2022-07-19 06:02:00,,0826.7,5.00,0.00,29.4,27.0,00.0,38.1,31.1,23.1,0000.0,0003.64,0007.30,0003.05
2022-07-19 06:03:00,,0826.7,4.99,0.00,29.3,27.2,00.0,38.1,31.1,23.2,0000.0,0003.64,0007.25,0003.05
2022-07-19 06:04:00,,0826.7,5.00,0.00,29.3,27.4,00.0,38.1,31.2,23.3,0000.0,0003.64,0007.41,0003.04
2022-07-19 06:05:00,,0826.7,5.01,0.00,29.3,27.6,00.0,38.1,31.2,23.1,0000.0,0003.61,0007.29,0003.04
2022-07-19 06:06:00,,0826.7,4.99,0.00,29.3,27.8,00.0,38.1,31.2,23.0,0000.0,0003.62,0007.27,0003.05
2022-07-19 06:07:00,,0826.7,5.00,0.00,29.4,27.9,00.0,38.1,31.3,23.1,0000.0,0003.61,0006.66,0003.04
2022-07-19 06:08:00,,0826.7,5.01,0.00,29.4,28.1,00.0,38.1,31.3,23.2,0000.0,0003.60,0006.86,0003.03
2022-07-19 06:09:00,,0826.8,4.99,0.00,29.4,28.2,00.0,38.1,31.4,23.1,0000.0,0003.60,0007.32,0003.03
2022-07-19 06:10:00,,0826.7,5.01,0.00,29.5,28.3,00.0,38.1,31.4,23.1,0000.0,0003.57,0007.15,0003.03
2022-07-19 06:11:00,,0826.7,5.00,0.00,29.5,28.5,00.0,38.2,31.5,23.0,0000.0,0003.54,0007.04,0003.03
2022-07-19 06:12:00,,0826.8,5.00,0.00,29.5,28.5,00.0,38.2,31.5,23.0,0000.0,0003.57,0007.18,0003.03
2022-07-19 06:13:00,,0826.7,5.00,0.00,29.6,28.0,00.0,38.1,31.5,23.0,0000.0,0003.56,0007.07,0003.04
2022-07-19 06:14:00,,0826.8,4.99,0.00,29.5,27.1,00.0,38.1,31.4,23.1,0000.0,0003.54,0007.02,0003.04
2022-07-19 06:15:00,,0826.8,5.01,0.00,29.5,26.9,00.0,38.1,31.3,23.2,0000.0,0003.54,0007.39,0003.05
2022-07-19 06:16:00,,0826.8,4.99,0.00,29.4,27.0,00.0,38.1,31.1,23.3,0000.0,0003.58,0008.06,0003.05
2022-07-19 06:17:00,,0826.8,5.01,0.00,29.3,27.1,00.0,38.1,31.1,23.4,0000.0,0003.58,0008.09,0003.04
2022-07-19 06:18:00,,0826.8,5.00,0.00,29.3,27.3,00.0,38.1,31.1,23.5,0000.0,0003.59,0008.27,0003.05
2022-07-19 06:19:00,,0826.8,5.00,0.00,29.3,27.5,00.0,38.1,31.2,23.4,0000.0,0003.57,0008.80,0003.05
2022-07-19 06:20:00,,0826.7,5.01,0.00,29.3,27.7,00.0,38.1,31.2,23.4,0000.0,0003.57,0008.44,0003.05
2022-07-19 06:21:00,,0826.8,4.99,0.00,29.4,27.9,00.0,38.1,31.3,23.4,0000.0,0003.60,0008.57,0003.06
2022-07-19 06:22:00,,0826.8,5.00,0.00,29.4,28.0,00.0,38.1,31.3,23.3,0000.0,0003.60,0008.54,0003.06
2022-07-19 06:23:00,,0826.8,4.99,0.00,29.4,28.2,00.0,38.1,31.3,23.2,0000.0,0003.58,0008.50,0003.07
2022-07-19 06:24:00,,0826.9,5.01,0.00,29.4,28.3,00.0,38.1,31.4,23.0,0000.0,0003.59,0008.55,0003.08
2022-07-19 06:25:00,,0826.8,5.00,0.00,29.5,28.4,00.0,38.2,31.5,23.0,0000.0,0003.61,0008.59,0003.08
2022-07-19 06:26:00,,0826.8,5.01,0.00,29.5,28.5,00.0,38.2,31.5,22.8,0000.0,0003.60,0008.05,0003.09
2022-07-19 06:27:00,,0826.9,5.00,0.00,29.5,28.3,00.0,38.2,31.5,22.8,0000.0,0003.60,0007.62,0003.10
2022-07-19 06:28:00,,0826.9,5.01,0.00,29.5,27.4,00.0,38.1,31.4,22.9,0000.0,0003.60,0007.57,0003.10
2022-07-19 06:29:00,,0826.9,4.99,0.00,29.5,26.9,00.0,38.1,31.3,22.8,0000.0,0003.61,0007.32,0003.09
2022-07-19 06:30:00,,0827.3,5.01,0.00,29.4,26.9,00.0,38.1,31.2,22.9,0000.0,0003.66,0006.33,0003.10
2022-07-19 06:31:00,,0827.1,5.00,0.00,29.4,27.0,00.0,38.1,31.1,23.0,0000.0,0003.67,0006.34,0003.10
2022-07-19 06:32:00,,0826.8,5.01,0.00,29.3,27.2,00.0,38.1,31.1,23.0,0000.0,0003.66,0006.36,0003.09
2022-07-19 06:33:00,,0826.8,5.00,0.00,29.3,27.4,00.0,38.1,31.1,23.0,0000.0,0003.67,0006.26,0003.09
2022-07-19 06:34:00,,0827.2,5.00,0.00,29.3,27.6,00.0,38.1,31.2,23.0,0000.0,0003.65,0006.26,0003.08
2022-07-19 06:35:00,,0826.9,5.00,0.00,29.3,27.8,00.0,38.1,31.2,23.0,0000.0,0003.63,0006.32,0003.08
2022-07-19 06:36:00,,0827.1,4.99,0.00,29.4,27.9,00.0,38.1,31.3,23.0,0000.0,0003.62,0006.65,0003.07
2022-07-19 06:37:00,,0826.9,5.00,0.00,29.4,28.1,00.0,38.1,31.3,22.9,0000.0,0003.63,0007.29,0003.06
2022-07-19 06:38:00,,0826.8,5.00,0.00,29.4,28.2,00.0,38.1,31.4,22.9,0000.0,0003.65,0007.40,0003.07
2022-07-19 06:39:00,,0826.8,5.00,0.00,29.5,28.3,00.0,38.1,31.4,22.8,0000.0,0003.65,0007.43,0003.09
2022-07-19 06:40:00,,0826.9,4.99,0.00,29.5,28.4,00.0,38.2,31.5,22.8,0000.0,0003.68,0007.47,0003.12
2022-07-19 06:41:00,,0826.9,5.00,0.00,29.5,28.4,00.0,38.2,31.5,22.7,0000.0,0003.66,0007.43,0003.12
2022-07-19 06:42:00,,0827.0,4.99,0.00,29.5,27.9,00.0,38.1,31.5,22.6,0000.0,0003.65,0007.48,0003.13
2022-07-19 06:43:00,,0827.1,5.00,0.00,29.5,27.5,00.0,38.1,31.4,22.6,0000.0,0003.66,0008.21,0003.14
2022-07-19 06:44:00,,0827.1,4.99,0.00,29.5,27.5,00.0,38.1,31.3,22.6,0000.0,0003.66,0008.57,0003.14
2022-07-19 06:45:00,,0827.3,5.00,0.00,29.5,27.6,00.0,38.1,31.3,22.6,0000.0,0003.66,0008.56,0003.13
2022-07-19 06:46:00,,0827.1,5.00,0.00,29.4,27.7,00.0,38.1,31.3,22.8,0000.0,0003.67,0008.59,0003.11
2022-07-19 06:47:00,,0827.3,5.00,0.00,29.4,27.9,00.0,38.1,31.3,22.9,0000.0,0003.67,0008.51,0003.10
2022-07-19 06:48:00,,0827.0,5.00,0.00,29.5,28.0,00.0,38.2,31.4,22.9,0000.0,0003.67,0008.12,0003.08
2022-07-19 06:49:00,,0827.0,5.01,0.00,29.5,28.2,00.0,38.2,31.4,23.0,0000.0,0003.61,0007.98,0003.05
2022-07-19 06:50:00,,0827.1,4.99,0.00,29.5,28.3,00.0,38.2,31.5,23.0,0000.0,0003.60,0007.95,0003.02
2022-07-19 06:51:00,,0827.0,5.01,0.00,29.5,28.4,00.0,38.2,31.5,22.9,0000.0,0003.59,0007.96,0002.99
2022-07-19 06:52:00,,0827.0,4.99,0.00,29.6,28.5,00.0,38.2,31.6,22.8,0000.0,0003.57,0007.93,0002.96
2022-07-19 06:53:00,,0827.0,5.00,0.00,29.6,28.4,00.0,38.2,31.6,22.8,0000.0,0003.57,0007.92,0002.93
2022-07-19 06:54:00,,0826.9,5.02,0.00,29.6,27.6,00.0,38.2,31.5,22.8,0000.0,0003.56,0006.92,0002.90
2022-07-19 06:55:00,,0826.8,4.99,0.00,29.5,27.0,00.0,38.1,31.4,22.9,0000.0,0003.56,0006.36,0002.88
2022-07-19 06:56:00,,0827.0,5.01,0.00,29.5,26.9,00.0,38.1,31.3,22.8,0000.0,0003.57,0006.40,0002.87
2022-07-19 06:57:00,,0827.2,4.99,0.00,29.4,27.0,00.0,38.1,31.1,22.9,0000.0,0003.56,0006.43,0002.87
2022-07-19 06:58:00,,0826.9,5.00,0.00,29.4,27.2,00.0,38.1,31.1,23.0,0000.0,0003.56,0006.34,0002.88
2022-07-19 06:59:00,,0826.8,5.00,0.00,29.4,27.4,00.0,38.1,31.2,23.3,0000.0,0003.58,0006.38,0002.88
